Flag for Spain Weather past 2 weeks in Málaga, Spain

Now
79 °F

Clear.


Feels Like: 79 °F
Forecast: 69 / 83 °F
Wind: 13 mph from West

Location: Malaga / Aeropuerto

Current Time: Aug 23, 2014 at 4:15:50 AM

Latest Report: Aug 23, 2014 at 3:30 AM


Visibility: 10 mi

Pressure: 29.95 "Hg

Humidity: 32%

Dew point: 46 °F

Location of MálagaLocation

Historic Weather in Málaga — Graph

°F

Málaga temperature yesterday

Maximum temperature yesterday: 91 °F (at 6:00 PM)
Minimum temperature yesterday: 63 °F (at 7:30 AM)
Average temperature yesterday: 78 °F

Past Weeks' High & Low Weather Summary

 TemperatureHumidityPressure
High100 °F (Aug 11, 3:30 PM)100% (Aug 8, 9:30 PM)30.07 "Hg (Aug 8, 9:30 PM)
Low63 °F (Aug 22, 7:30 AM)11% (Aug 20, 2:30 PM)29.80 "Hg (Aug 9, 7:30 PM)
Average79 °F61%29.93 "Hg
* Reported Aug 8 2:00 AM — Aug 23 2:30 AM, Málaga, Weather by CustomWeather, © 2014

Note: Actual official high and low records may vary slightly from our data, if they occured in-between our weather recording intervals... More about our weather records

Advertising

Málaga weather history for previous 24 hours

 ConditionsComfort  
Time TempWeatherWind HumidityBarometerVisibility
2:30 AM
Aug 23
81 °FClear.13 mph30%29.95 "Hg10 mi
2:00 AM81 °FClear.12 mph30%29.95 "Hg10 mi
1:30 AM82 °FClear.12 mph28%29.95 "Hg10 mi
1:00 AM82 °FClear.12 mph28%29.95 "Hg10 mi
12:30 AM81 °FClear.12 mph30%29.95 "Hg10 mi
12:00 AM82 °FClear.12 mph28%29.95 "Hg10 mi
11:30 PM
Aug 22
84 °FClear.12 mph25%29.92 "Hg10 mi
11:00 PM84 °FClear.12 mph25%29.92 "Hg10 mi
10:30 PM84 °FClear.8 mph23%29.92 "Hg10 mi
10:00 PM84 °FClear.8 mph22%29.92 "Hg10 mi
9:30 PM84 °FSunny.7 mph23%29.89 "Hg10 mi
9:00 PM82 °FSunny.No wind48%29.89 "Hg10 mi
8:30 PM84 °FSunny.No wind40%29.89 "Hg10 mi
8:00 PM86 °FPassing clouds.3 mph38%29.86 "HgN/A
7:30 PM91 °FPassing clouds.5 mph23%29.86 "HgN/A
7:00 PM91 °FPassing clouds.8 mph24%29.86 "HgN/A
6:30 PM91 °FPassing clouds.7 mph26%29.89 "HgN/A
6:00 PM91 °FPassing clouds.9 mph28%29.89 "HgN/A
5:30 PM90 °FPassing clouds.8 mph29%29.89 "HgN/A
5:00 PM88 °FPassing clouds.13 mph31%29.89 "HgN/A
4:30 PM88 °FPassing clouds.12 mph29%29.92 "HgN/A
4:00 PM90 °FPassing clouds.8 mph22%29.92 "HgN/A
3:30 PM88 °FPassing clouds.10 mph18%29.92 "HgN/A
3:00 PM88 °FPassing clouds.9 mph18%29.95 "HgN/A
2:30 PM88 °FPassing clouds.9 mph25%29.95 "HgN/A
2:00 PM84 °FPassing clouds.8 mph37%29.95 "HgN/A
1:30 PM82 °FPassing clouds.8 mph35%29.98 "HgN/A
1:00 PM79 °FPassing clouds.9 mph54%29.98 "HgN/A
12:30 PM79 °FPassing clouds.8 mph51%29.98 "HgN/A
12:00 PM77 °FPassing clouds.7 mph54%29.98 "HgN/A
11:30 AM77 °FPassing clouds.5 mph61%29.98 "HgN/A
11:00 AM73 °FPassing clouds.9 mph78%29.98 "HgN/A
10:30 AM73 °FPassing clouds.6 mph78%29.98 "HgN/A
10:00 AM73 °FPassing clouds.6 mph78%29.95 "HgN/A
9:30 AM73 °FSunny.1 mph61%29.95 "Hg10 mi
9:00 AM70 °FPassing clouds.6 mph60%29.95 "HgN/A
8:30 AM66 °FPassing clouds.No wind73%29.95 "HgN/A
8:00 AM64 °FPassing clouds.1 mph78%29.95 "HgN/A
7:30 AM63 °FClear.6 mph94%29.95 "Hg10 mi
7:00 AM64 °FClear.7 mph88%29.95 "Hg10 mi
6:30 AM66 °FPassing clouds.3 mph83%29.95 "HgN/A
6:00 AM66 °FPassing clouds.3 mph88%29.95 "HgN/A
5:30 AM68 °FPassing clouds.No wind94%29.95 "HgN/A
5:00 AM68 °FPassing clouds.No wind94%29.95 "HgN/A
4:30 AM70 °FPassing clouds.No wind88%29.95 "HgN/A
4:00 AM68 °FPassing clouds.1 mph88%29.95 "HgN/A
Weather by CustomWeather, © 2014

See weather overviewHow to use our weather pages